Wind_Speed
42 42 41 41 39 39 39 39 38 37 37 36 37 38 39 40 41 40 40 40 40 41 40 41 41 41 41 41 39 38 36 35 34 35 34 33 33 34 32 31 30 29 27 26 26 25 24 23 22 20 18 17 17 15 14 13 11 11 10 9 9 9 10 11 10 11 14 15 15 14 12 11 13 13 12 13 12 12 13 15 15 17 18 20 21
42 42 40 40 40 39 39 38 38 38 37 37 38 38 39 41 41 41 41 41 41 41 42 41 42 43 42 41 40 39 38 36 35 35 36 35 35 35 34 33 32 30 29 29 28 27 26 25 24 21 18 17 18 17 16 14 13 13 12 11 11 11 12 14 14 12 14 16 15 13 12 12 13 13 13 14 13 13 14 16 17 17 19 20 22
43 42 40 40 40 40 39 38 38 38 38 38 39 39 40 41 41 41 42 42 42 42 42 42 43 43 43 42 41 40 39 38 37 37 38 37 36 36 35 35 34 32 32 31 30 29 28 27 25 23 20 18 18 18 17 16 15 14 14 13 14 14 14 15 16 15 15 16 15 14 13 12 13 14 13 14 14 14 16 17 18 18 18 19 20
41 41 40 40 40 40 39 38 38 39 39 39 40 41 41 40 41 42 42 42 42 42 42 42 43 43 43 43 42 41 40 39 38 38 39 40 38 37 36 36 36 34 34 33 31 30 30 29 27 24 22 21 20 19 18 18 17 16 15 15 16 16 15 16 17 17 16 16 15 15 14 13 13 13 13 13 14 15 16 17 17 17 17 17 19
40 41 41 40 40 40 40 39 39 40 40 40 41 42 41 40 41 42 42 42 42 42 41 42 43 44 44 43 42 41 41 40 39 39 40 40 39 38 38 37 36 35 34 33 31 30 30 30 27 24 24 23 22 21 20 19 17 16 17 17 17 17 16 16 16 17 18 18 18 16 14 13 14 13 12 12 13 14 14 15 15 16 16 17 17
40 40 40 40 40 40 41 40 41 41 42 41 41 42 41 41 41 42 42 42 42 42 42 43 43 44 44 43 42 42 41 41 41 40 40 40 39 38 38 37 36 35 33 32 31 30 30 29 26 24 24 25 24 23 22 20 18 18 18 19 18 18 18 18 17 18 19 20 20 18 15 15 15 14 12 12 13 14 14 15 16 16 16 16 16
39 40 40 40 40 41 42 42 42 42 43 42 42 42 42 41 41 42 42 42 41 42 42 43 43 43 43 42 41 42 42 42 41 40 40 40 39 38 37 36 34 31 30 31 31 30 29 29 27 26 25 26 26 25 23 20 20 20 21 20 19 19 19 19 19 19 20 21 20 19 17 16 15 15 14 11 12 14 14 16 18 17 15 14 15
40 40 40 40 40 42 43 43 43 43 43 42 42 41 42 42 41 41 41 41 41 42 42 43 42 41 41 41 41 41 42 42 42 40 39 39 39 37 36 35 31 28 29 31 31 30 30 29 29 29 28 27 27 26 24 21 21 21 21 20 20 20 20 20 20 19 20 20 20 19 18 17 16 15 14 12 12 14 13 14 16 16 15 14 15
39 39 39 40 41 42 42 42 42 42 42 42 42 42 42 42 41 40 40 41 41 41 41 41 41 40 40 40 40 40 42 43 43 41 40 39 38 38 37 34 30 29 31 32 31 31 31 31 30 31 30 29 28 26 24 22 21 22 22 20 20 21 20 20 19 19 19 19 20 19 17 17 17 16 15 14 14 14 13 12 13 15 16 17 19
39 39 40 42 42 41 41 41 41 41 42 42 42 42 42 41 40 39 39 40 40 39 39 39 40 40 40 40 40 41 43 44 44 42 41 40 39 39 37 34 32 34 35 34 32 32 32 33 32 31 31 30 28 27 25 23 23 23 22 21 21 21 21 20 19 19 19 19 20 19 16 17 19 17 16 16 15 15 14 13 14 16 16 17 21
39 40 41 41 40 40 41 41 40 41 42 42 42 43 42 41 39 38 38 39 39 39 38 38 40 41 41 41 41 42 44 44 43 41 41 41 40 40 38 34 33 35 36 34 33 33 33 32 32 31 30 29 29 27 26 25 24 23 23 22 22 22 22 21 21 21 20 20 20 19 17 18 20 18 16 17 17 16 15 15 15 16 15 14 16
39 40 41 39 38 39 40 40 40 41 41 42 42 42 41 39 38 38 38 38 39 39 39 39 41 41 40 41 42 44 45 44 42 42 42 42 41 40 38 34 33 35 36 35 35 34 33 32 31 31 30 29 29 28 27 26 24 23 23 24 24 24 23 22 22 21 21 20 20 20 19 19 21 20 18 17 17 16 15 14 15 16 17 15 16
40 40 40 38 39 40 40 40 40 41 41 42 41 40 39 38 38 38 39 39 39 39 39 40 40 40 41 42 43 44 44 42 42 42 42 42 42 42 39 35 34 35 35 36 35 35 34 32 31 31 30 29 29 27 27 26 24 22 22 23 24 25 23 22 21 21 20 19 20 21 21 20 20 19 18 17 16 14 13 15 17 18 18 18 20
40 39 38 39 40 41 40 40 41 41 41 41 39 38 38 39 38 39 39 39 38 38 39 40 40 41 42 43 44 43 42 42 42 43 43 42 43 44 41 36 35 35 35 35 35 35 34 32 31 31 31 30 29 28 27 26 23 22 21 21 23 23 22 22 21 20 19 18 19 21 20 18 18 18 17 16 16 15 14 16 18 19 18 19 21
38 38 38 39 40 40 40 40 41 40 40 39 38 38 38 38 39 39 39 39 39 39 40 40 40 42 43 43 42 41 41 42 42 42 43 42 43 45 42 37 35 34 34 34 35 34 33 32 31 32 32 31 30 29 27 23 21 21 21 21 22 22 22 22 20 18 17 17 18 18 17 16 16 17 17 18 17 15 15 16 17 18 19 20 22
37 37 37 38 40 40 41 40 40 39 39 39 38 38 39 39 39 39 38 38 38 38 39 40 41 42 42 41 40 39 39 40 40 41 41 41 43 45 42 37 35 33 33 34 34 32 32 32 32 32 32 32 30 28 25 23 21 22 22 22 22 21 21 20 18 16 15 15 15 15 15 15 15 15 16 15 14 13 13 14 17 18 18 18 20
35 36 37 39 40 41 41 40 39 38 38 39 40 40 40 40 39 39 37 37 37 38 39 41 42 42 40 39 39 37 36 37 38 39 40 41 43 44 42 39 36 33 32 32 32 31 32 32 32 33 33 31 30 28 25 23 22 22 22 22 21 20 20 18 15 14 15 14 15 15 15 14 13 13 12 11 11 11 12 15 17 17 15 13 13
36 37 38 39 40 41 41 40 39 39 39 40 41 41 40 39 39 39 39 38 38 39 40 39 39 39 38 39 38 36 35 36 37 38 39 40 43 44 42 38 35 33 30 29 30 31 32 33 34 34 34 33 30 27 25 24 23 23 22 21 20 20 20 17 14 14 14 14 14 13 12 11 10 10 10 10 11 13 15 16 16 16 15 13 12
37 38 41 42 41 41 41 41 40 40 40 41 41 40 40 40 39 40 40 39 37 37 37 36 35 36 37 37 37 37 37 37 37 38 39 41 44 44 40 35 33 32 29 27 28 30 32 33 34 34 34 33 29 25 24 24 24 24 23 21 21 22 20 16 14 14 13 13 12 11 11 10 11 12 13 14 13 13 14 13 11 11 12 12 11
41 42 42 40 40 41 42 43 43 42 42 41 40 40 39 38 39 39 37 36 35 34 34 34 33 34 35 36 37 38 39 37 36 36 38 40 43 43 38 35 34 33 29 27 28 31 33 33 33 33 33 31 27 24 23 23 24 26 25 23 23 22 18 14 13 13 13 13 13 13 14 15 15 15 15 14 12 11 10 7 4 5 6 8 10
40 39 38 37 39 41 42 43 44 43 43 41 38 38 38 38 38 37 35 34 33 32 33 33 33 33 35 36 37 38 37 36 34 34 37 39 42 42 39 36 35 33 29 28 30 32 33 34 34 34 33 31 27 24 23 23 25 26 25 24 22 20 15 12 13 13 13 14 14 16 17 17 16 13 11 10 9 8 6 4 4 6 8 9 10
36 35 35 36 38 40 41 42 43 41 40 39 37 36 37 37 37 36 35 34 33 31 31 31 32 32 32 32 33 32 32 32 32 33 36 37 39 41 40 38 37 33 29 29 32 33 33 33 34 35 34 31 28 25 24 24 24 24 24 22 19 15 13 12 12 13 14 15 16 17 17 15 13 10 9 9 9 7 6 6 8 11 12 12 11
32 33 34 35 37 39 40 40 40 39 38 39 38 37 36 35 35 35 34 33 32 31 30 29 28 26 23 23 23 25 27 29 29 31 33 34 36 39 39 38 36 32 31 31 32 31 31 31 33 33 31 30 28 26 25 23 22 23 21 17 13 12 13 12 11 12 14 16 17 17 16 13 11 9 8 8 8 7 7 9 12 14 14 13 13
27 28 30 32 33 35 37 38 38 37 38 39 37 35 34 34 33 33 34 33 30 27 25 23 21 19 17 17 18 20 23 25 25 26 28 30 33 35 37 37 35 33 32 32 30 29 29 29 29 27 27 28 27 24 21 20 20 20 17 11 9 11 11 10 11 12 15 17 17 15 13 10 9 8 8 8 8 8 9 12 14 14 13 12 13
25 26 28 30 32 33 33 35 36 37 38 39 37 35 34 33 31 30 30 29 26 22 19 18 17 17 17 17 17 18 20 21 23 24 26 29 32 33 35 37 34 32 31 28 26 26 26 25 24 23 25 26 23 20 19 20 20 18 14 11 11 11 10 10 12 14 16 16 15 13 11 9 8 8 8 8 9 10 11 13 14 13 12 12 14
25 25 25 27 30 32 32 31 33 35 36 37 37 36 35 32 29 27 25 24 22 20 19 17 17 16 16 17 17 18 19 21 23 25 28 30 31 31 33 35 31 27 26 25 23 22 21 22 22 23 23 22 20 18 19 19 18 15 14 13 13 12 12 12 13 14 16 15 13 11 10 8 7 7 7 9 10 10 11 12 13 13 12 13 16
25 25 25 24 25 28 30 31 30 32 33 33 32 31 32 31 28 26 24 23 21 20 20 19 18 17 17 18 18 19 20 21 23 25 26 26 25 26 30 32 29 24 21 20 19 19 19 18 17 17 17 15 14 14 14 14 15 15 15 14 14 14 13 13 13 15 15 13 11 11 10 8 7 7 8 9 10 10 10 11 12 13 13 15 17
22 25 26 24 19 19 23 29 31 30 29 30 30 28 29 30 28 27 26 25 24 23 22 22 22 21 21 20 20 19 20 22 23 24 24 23 22 22 26 30 30 27 21 17 16 16 15 14 12 13 14 13 12 12 13 13 14 15 15 15 15 15 14 14 14 15 14 13 13 12 12 10 8 8 8 9 9 10 10 11 12 13 13 15 17
18 20 23 23 21 20 20 24 31 34 32 30 29 27 27 30 29 27 25 25 24 24 24 25 25 24 24 24 23 22 23 24 25 24 23 23 23 23 24 27 29 27 22 19 16 13 12 13 16 18 18 17 15 15 15 14 13 14 14 15 16 16 15 15 16 16 15 14 14 14 14 12 10 9 9 9 9 9 9 9 10 11 13 15 17
22 21 22 25 28 29 26 22 26 34 37 35 31 28 25 26 27 26 24 22 22 22 22 23 24 24 24 24 23 22 22 23 23 23 22 22 22 23 24 26 27 26 23 19 16 14 15 19 22 22 21 18 17 17 15 14 13 13 14 15 17 17 17 17 17 17 16 14 14 15 16 14 11 11 9 8 7 6 6 7 9 11 14 16 17
25 27 25 25 26 29 28 24 22 26 33 35 35 31 26 22 21 21 21 20 19 18 17 18 19 19 19 20 20 20 20 19 18 20 21 22 22 23 24 25 27 27 25 22 18 18 20 22 23 22 20 18 17 17 16 14 13 14 16 18 18 18 18 19 19 16 15 14 14 14 13 11 11 10 8 7 6 5 6 7 9 11 13 14 15
20 28 27 25 24 23 25 27 26 25 29 32 32 31 28 23 19 16 16 17 17 17 16 15 15 15 14 15 17 18 18 17 17 18 20 21 22 23 22 23 24 25 26 24 21 21 23 23 22 21 20 18 16 15 14 13 13 15 17 18 18 17 17 17 16 12 10 10 9 9 9 9 9 8 6 5 5 6 7 7 8 9 11 12 14
23 26 25 24 24 22 22 26 27 27 28 29 29 28 27 24 20 17 16 15 15 16 16 14 14 14 14 14 14 14 14 14 16 18 19 20 22 21 20 20 22 24 25 24 23 23 23 21 20 19 19 16 14 12 12 13 14 16 16 15 13 12 11 10 10 9 9 9 8 7 8 8 7 6 5 5 6 6 6 6 6 8 10 13 15
23 24 25 25 24 23 23 25 26 27 28 28 27 26 24 24 23 21 19 15 14 14 14 13 14 15 16 15 13 12 12 14 16 17 18 19 21 21 19 20 23 24 24 24 23 23 21 19 18 17 15 11 10 9 8 8 8 8 7 6 5 5 6 8 10 11 10 9 8 7 7 7 6 6 7 7 6 5 5 4 6 9 11 14 16
20 22 24 25 24 23 23 24 26 26 27 28 28 26 25 24 23 22 20 19 17 16 14 13 15 17 17 16 14 13 14 15 16 17 18 19 21 22 23 25 27 25 22 21 21 21 20 20 18 14 12 11 12 13 13 12 11 11 11 11 10 9 10 11 11 9 8 7 7 6 6 6 7 6 6 5 4 3 3 5 8 11 13 15 17
18 18 20 22 23 22 22 24 25 25 25 25 25 26 25 23 21 19 18 19 20 19 17 15 15 15 16 16 16 15 16 17 18 19 19 21 23 24 25 27 27 25 21 19 18 18 18 18 16 13 13 15 16 15 13 13 12 11 11 11 11 12 13 12 10 8 7 6 6 4 3 3 3 3 3 2 1 2 5 8 10 11 13 15 17
19 18 19 20 21 22 22 23 24 25 25 24 24 24 23 21 19 18 17 18 19 20 20 19 19 19 18 18 20 21 20 20 20 20 20 21 22 22 23 25 26 24 21 19 18 17 17 16 15 14 14 14 14 14 13 12 11 9 9 9 10 11 11 10 8 7 6 5 6 6 4 3 2 2 2 1 2 4 6 9 11 12 14 15 16
18 18 19 20 21 22 21 21 22 23 23 23 24 24 23 21 19 18 18 18 20 21 22 22 23 24 23 21 21 23 22 21 21 21 21 22 21 19 21 23 23 22 21 20 19 18 16 15 14 13 13 14 15 15 13 11 10 9 8 8 9 9 8 7 6 6 5 4 5 6 6 5 4 3 2 2 3 5 7 9 10 12 14 15 16
16 17 18 19 19 19 20 20 20 19 19 20 20 21 21 21 20 19 19 20 20 21 21 21 22 24 24 23 23 23 22 22 22 23 24 23 20 18 19 20 19 19 20 20 18 16 14 13 13 13 14 14 15 14 12 11 10 10 9 9 9 8 7 7 6 6 5 4 3 4 6 6 5 4 2 2 4 6 8 9 11 12 14 15 17
16 16 16 16 17 17 18 19 18 18 18 18 18 19 20 21 21 22 22 21 20 20 20 20 22 24 25 25 25 25 24 24 24 25 25 24 20 17 17 17 17 17 17 17 16 15 13 14 15 15 15 15 14 13 12 11 10 9 8 8 8 8 7 6 5 4 4 4 4 5 6 6 5 3 2 3 5 7 8 9 11 12 14 16 18
15 17 16 16 17 17 18 18 18 18 19 19 19 20 20 20 21 21 21 20 20 19 18 19 22 24 25 26 26 25 25 25 26 26 26 24 20 17 15 14 15 15 16 17 17 15 14 15 16 15 14 14 13 12 11 10 9 8 7 7 7 7 6 5 4 4 3 4 5 7 7 6 4 2 3 4 6 7 8 9 11 12 14 16 17
13 15 16 18 19 19 19 18 18 18 19 18 17 18 18 18 18 18 18 18 19 19 18 18 19 22 24 25 24 22 22 24 26 26 24 22 20 17 15 15 16 17 16 17 17 16 16 17 16 14 13 13 12 11 10 9 8 7 7 6 6 6 6 5 5 5 5 6 8 8 6 4 2 2 4 5 7 8 9 9 11 12 13 15 17
11 12 13 16 18 20 20 19 18 18 18 16 15 15 16 16 16 16 16 17 18 19 19 18 18 19 22 23 23 20 19 21 24 24 22 21 20 19 18 18 18 16 14 15 17 18 18 17 15 13 11 11 9 8 7 7 7 7 7 7 6 6 6 5 6 6 6 7 6 5 3 3 3 5 7 8 9 9 9 9 10 12 14 16 17
13 11 10 11 12 15 17 18 18 18 17 16 15 15 15 16 16 17 16 17 17 18 19 19 18 18 21 23 22 20 18 19 20 20 20 20 20 21 21 21 18 16 15 17 18 18 17 16 14 12 10 8 8 7 7 7 6 6 6 6 5 6 6 6 6 6 5 5 4 3 3 4 6 9 10 11 10 10 9 9 10 12 15 16 16
8 9 9 8 8 9 13 15 16 16 16 17 17 16 17 17 17 17 17 17 17 17 18 19 18 18 21 25 25 21 18 17 17 17 17 18 20 21 21 21 19 18 19 19 18 16 15 15 14 12 10 8 8 7 6 6 5 5 4 3 3 4 5 5 5 5 4 2 2 4 6 8 10 11 12 12 10 9 8 8 10 13 15 15 15
5 8 10 12 12 11 11 13 14 15 16 18 18 18 17 18 19 18 17 17 18 17 17 18 18 18 22 27 27 22 18 18 17 16 16 18 19 19 21 22 22 22 21 20 19 17 16 15 13 11 10 9 8 7 6 5 5 5 4 2 2 1 3 4 4 3 2 3 5 7 8 10 10 11 11 10 8 7 7 8 10 12 13 14 15
10 11 13 15 17 15 12 11 12 13 14 16 18 18 18 18 19 18 16 16 18 19 18 18 18 19 23 27 28 23 19 19 18 17 18 19 18 20 23 25 24 23 22 21 20 18 16 14 12 10 9 9 9 8 7 7 6 4 3 1 1 2 2 3 2 2 4 5 7 8 9 10 10 9 8 7 6 5 6 8 10 11 12 13 16
9 10 10 9 10 11 13 14 15 14 12 12 14 17 19 20 20 18 17 18 19 19 19 19 18 18 21 27 28 23 19 19 18 17 17 18 19 21 25 27 25 24 23 22 20 18 16 14 13 10 8 9 9 8 8 8 6 4 2 2 2 2 1 1 1 2 4 6 7 9 10 10 10 9 7 6 6 5 6 8 9 11 12 14 16
8 9 9 8 7 7 9 12 14 13 13 12 12 15 19 22 21 19 19 20 20 19 19 18 18 17 20 26 28 24 20 20 20 18 17 18 20 22 24 24 24 24 24 22 21 20 18 16 15 13 10 9 10 10 10 9 6 3 3 3 3 2 1 1 2 4 5 6 8 10 10 10 10 9 7 6 6 6 6 7 8 10 12 14 16
10 10 11 11 10 7 5 5 8 12 14 15 16 17 19 21 21 20 20 20 20 20 19 18 17 16 18 24 28 26 22 21 21 20 19 19 21 20 19 19 22 25 25 23 22 21 19 18 17 16 13 12 12 11 10 9 7 6 5 6 6 4 2 2 3 4 5 6 8 10 10 9 9 8 7 6 6 5 6 6 8 11 13 14 14
10 10 10 10 9 8 6 6 6 9 11 14 17 19 19 19 20 21 21 20 21 21 20 17 15 14 14 20 27 28 25 22 21 20 20 20 20 17 15 16 22 26 27 24 23 22 20 19 19 18 16 15 15 13 12 10 9 8 8 8 8 6 3 2 3 4 5 7 8 9 9 8 8 7 5 5 5 4 5 6 9 11 12 11 10
Wind_Direction
198 199 201 202 203 205 207 208 208 208 209 208 208 208 208 208 207 205 204 204 205 205 206 206 205 205 205 206 209 211 212 211 210 210 210 211 212 212 211 210 211 213 214 216 217 217 217 220 222 221 224 226 221 216 217 220 221 220 221 230 233 233 232 223 222 248 267 274 281 287 292 294 291 288 287 286 282 280 283 284 285 287 289 290 292
198 199 199 201 203 204 206 207 207 208 208 209 209 209 209 208 207 206 206 207 206 206 207 207 206 206 206 207 209 212 213 213 211 209 209 210 211 212 212 211 213 214 215 217 218 218 219 221 222 221 219 219 217 215 219 222 223 223 224 231 239 239 236 235 230 236 258 270 277 282 285 284 284 286 287 284 281 279 278 280 284 287 288 289 289
198 198 199 200 202 203 204 205 206 207 208 209 210 210 210 209 207 207 208 208 208 208 208 208 207 207 208 208 209 211 213 214 212 210 210 211 211 212 212 213 214 215 215 216 218 218 220 222 223 221 218 217 217 217 222 226 227 230 229 230 236 237 237 241 239 236 247 262 270 273 275 275 276 280 282 276 272 273 274 278 283 286 287 287 286
197 197 198 199 201 202 203 204 205 206 208 209 210 211 210 209 208 208 208 209 209 209 209 208 208 208 208 209 210 211 213 214 214 212 212 213 214 214 214 215 216 217 218 218 219 220 221 222 224 223 221 221 222 221 222 225 229 232 230 230 235 240 241 243 246 247 249 256 263 268 270 271 273 278 278 271 266 267 271 276 281 284 286 286 287
196 196 197 198 199 200 202 202 204 205 207 209 210 211 210 209 208 208 208 209 209 209 208 209 209 208 209 210 210 211 213 215 215 213 214 215 216 217 217 218 219 221 222 222 221 222 223 224 226 224 222 225 225 220 219 224 231 232 230 231 235 240 244 243 246 251 251 254 261 266 268 270 273 277 277 274 274 274 275 278 280 283 285 286 286
195 195 196 197 198 199 201 202 203 205 207 209 210 211 210 210 209 209 209 209 209 209 209 209 209 210 211 211 211 213 214 216 216 215 215 215 216 218 219 221 223 224 225 226 225 225 226 227 228 224 223 228 226 220 222 228 231 230 229 231 234 238 242 243 245 250 253 256 260 263 265 268 272 276 277 279 279 278 279 280 279 278 279 282 286
195 195 196 197 198 199 200 202 203 205 207 209 210 211 211 210 210 209 210 209 209 209 210 210 211 212 213 212 213 214 215 217 218 216 215 215 217 218 220 222 224 225 228 230 229 229 229 229 229 227 228 232 229 224 228 232 230 232 233 233 234 237 240 242 244 247 250 253 255 258 263 267 270 274 279 278 272 271 276 279 279 279 279 282 287
195 195 196 197 199 200 201 202 204 205 207 208 210 211 211 211 211 210 210 209 210 211 211 211 212 213 214 213 214 215 216 218 218 216 215 216 217 219 221 221 221 224 231 234 233 231 231 231 231 232 231 232 230 229 233 234 232 235 238 238 238 240 241 241 242 245 246 247 251 257 264 267 268 272 277 274 266 269 276 276 277 285 293 293 291
196 195 196 199 201 201 201 202 204 205 206 208 209 211 212 212 212 211 210 210 211 212 212 212 212 213 214 214 214 215 217 218 219 217 215 215 217 218 221 219 216 219 229 235 234 232 233 234 235 234 232 231 232 235 238 236 235 239 240 240 241 240 239 239 240 242 242 242 248 256 261 265 269 273 276 276 273 278 285 281 278 288 298 297 296
197 196 198 202 201 200 201 202 203 204 206 207 209 210 212 212 212 211 210 211 211 212 212 212 213 213 214 214 215 216 218 220 220 217 215 216 218 219 220 218 214 217 225 230 231 232 232 234 236 235 233 232 234 238 239 237 239 243 244 244 243 239 235 236 238 239 239 241 250 257 258 263 270 274 276 281 283 284 286 285 283 289 295 297 300
198 199 201 203 200 199 200 201 202 204 206 207 209 210 211 211 211 211 211 211 211 212 212 212 213 214 214 215 215 217 220 221 220 217 216 219 221 221 220 218 215 217 222 225 228 231 231 231 233 233 232 232 234 237 239 240 242 246 247 246 246 243 241 241 241 241 240 244 253 259 258 264 274 278 278 282 285 282 281 280 280 285 291 295 297
199 202 203 202 199 199 201 201 201 204 205 207 209 210 210 210 210 211 210 211 211 211 212 212 213 214 215 216 217 219 221 222 220 218 216 219 224 223 220 218 217 218 221 224 228 230 229 229 229 230 231 231 233 235 238 241 245 249 251 250 250 250 249 249 248 246 246 250 257 262 262 266 274 278 279 281 282 279 276 274 275 280 286 285 280
201 203 203 201 199 201 201 200 201 204 205 207 209 209 209 209 210 210 210 211 211 211 212 213 214 214 215 216 219 221 222 221 220 218 216 219 224 224 221 219 218 218 220 224 227 228 228 226 225 228 230 231 232 235 238 242 247 251 251 249 249 249 248 249 249 251 255 260 264 268 270 271 272 278 283 282 278 274 269 271 278 281 280 279 278
202 203 202 200 200 201 200 200 202 204 205 207 207 208 208 209 209 210 211 211 211 211 212 213 214 215 216 218 219 221 222 221 220 218 215 218 224 224 221 220 220 221 222 224 226 227 226 224 223 225 228 229 230 233 238 243 248 251 249 246 245 244 243 244 248 252 261 268 271 275 279 278 276 283 287 281 270 267 269 276 284 285 283 284 287
202 202 202 201 201 201 200 201 202 203 204 205 206 207 208 209 209 209 210 211 211 212 212 213 215 216 217 219 219 221 222 221 221 218 215 218 224 224 220 219 221 223 223 225 227 227 225 224 223 225 227 229 230 233 237 243 247 249 248 244 242 241 242 246 252 258 267 273 274 277 281 282 282 284 285 281 273 272 278 282 285 286 287 289 290
202 201 201 202 201 201 201 201 201 202 202 202 204 206 207 207 208 209 210 211 212 213 213 214 215 217 218 218 219 220 222 222 220 217 215 218 222 221 219 219 221 223 224 225 226 226 226 225 224 226 228 229 231 233 237 242 247 248 246 243 242 242 245 249 256 265 270 269 267 271 276 279 279 279 279 277 275 276 279 278 280 284 284 283 287
202 202 202 202 202 201 201 200 200 200 200 201 203 205 205 206 207 207 208 210 211 212 213 215 217 217 217 217 218 219 221 222 220 217 215 217 219 218 217 218 219 222 224 226 226 226 226 225 224 226 227 229 232 236 239 242 246 246 243 241 240 243 247 250 257 264 266 262 263 269 275 275 272 269 268 266 271 278 276 275 285 291 285 279 284
203 203 204 204 202 201 201 200 200 199 199 201 202 203 203 204 205 206 207 209 211 212 213 214 217 217 217 217 218 218 219 221 220 217 216 217 218 217 216 216 217 220 223 225 226 226 227 227 226 226 227 230 235 240 243 243 243 242 240 239 240 244 247 249 255 260 259 259 262 266 268 269 265 262 264 269 277 282 281 285 295 296 288 284 285
206 204 205 204 202 201 200 200 200 199 200 202 202 202 201 202 204 205 207 209 211 212 212 213 214 216 216 216 217 217 219 221 219 216 215 216 217 216 214 213 215 219 222 223 224 226 228 227 226 226 229 232 236 241 242 241 243 242 239 238 240 244 247 250 254 256 254 253 256 259 263 268 270 272 276 278 279 282 287 294 299 292 287 290 294
209 208 207 204 202 201 200 200 200 199 200 201 201 200 200 200 202 203 205 207 208 209 210 210 210 212 213 214 216 217 218 218 216 214 214 216 216 215 213 212 214 217 219 220 221 224 225 224 223 225 228 231 236 241 240 241 244 242 238 238 241 244 247 252 253 252 252 254 259 267 275 280 283 284 284 280 279 286 293 296 297 294 298 301 299
211 209 207 204 202 201 201 200 200 199 199 199 198 198 198 198 199 199 199 200 202 204 205 205 207 209 211 213 215 215 215 215 215 214 214 215 216 215 213 212 215 216 215 217 220 221 221 220 221 223 226 230 236 241 241 242 242 240 239 241 243 244 247 250 250 250 255 262 270 278 284 289 291 288 282 281 288 293 287 281 303 318 316 310 299
210 209 207 204 203 201 201 200 198 197 196 194 192 192 195 196 195 194 193 192 194 196 198 199 202 205 208 211 212 211 211 215 217 216 215 216 218 217 216 217 218 216 213 216 220 220 220 220 221 224 228 232 237 242 244 243 237 237 240 239 237 241 244 243 247 253 260 269 279 287 292 295 291 279 272 284 295 288 271 277 305 318 318 315 309
208 207 206 204 202 201 199 198 195 192 190 188 186 186 189 190 189 188 187 187 188 189 191 193 195 196 197 200 204 206 209 214 219 218 216 216 219 222 222 221 220 217 215 218 220 220 221 223 226 229 231 233 239 244 245 240 231 230 234 231 227 235 241 244 253 263 272 282 288 290 292 291 282 269 272 289 290 274 269 289 306 314 314 312 310
210 206 204 201 200 199 196 193 189 186 184 182 180 180 181 182 183 184 184 184 184 184 185 186 183 180 180 183 191 201 207 213 218 219 218 219 222 225 223 221 221 220 218 219 220 220 222 225 227 229 231 236 242 244 241 235 228 226 227 227 231 239 244 256 269 274 279 283 283 283 284 279 268 264 278 290 279 267 280 297 306 311 311 309 310
205 201 199 197 195 193 190 186 183 179 177 175 173 174 176 176 177 180 181 179 177 174 173 175 174 171 173 177 183 193 203 212 217 219 222 224 226 227 222 218 218 219 217 217 221 224 227 230 231 233 238 243 245 236 226 223 223 224 227 231 234 239 248 259 265 267 270 270 270 273 272 263 259 268 279 277 266 271 292 303 306 310 312 312 313
192 193 194 193 190 185 180 177 175 171 169 170 171 172 173 174 172 171 170 168 168 165 163 164 167 168 172 178 186 193 201 211 217 220 223 225 227 228 222 213 212 214 214 217 223 228 233 237 236 237 242 244 238 223 209 205 205 210 218 222 225 234 242 242 246 255 258 258 260 264 261 259 266 272 264 256 261 281 302 306 306 310 314 316 317
181 181 182 184 184 179 172 166 162 161 161 163 166 167 167 167 164 161 159 157 156 158 160 162 165 168 172 180 187 193 200 209 215 220 224 225 226 227 220 210 206 208 211 215 219 222 226 230 230 234 235 231 223 211 197 190 191 199 209 217 223 229 231 232 241 249 251 252 256 260 262 270 272 258 244 250 270 294 306 304 304 310 317 319 317
179 173 169 169 169 168 164 157 151 150 151 153 153 154 157 159 158 159 163 164 161 160 163 168 172 175 178 180 183 188 196 205 212 217 222 223 220 217 212 207 206 207 208 208 208 211 216 216 211 213 214 206 193 188 190 194 198 204 213 222 229 232 232 236 244 244 243 248 256 261 266 271 266 249 244 258 283 302 306 305 306 312 319 321 317
166 161 150 142 136 132 135 142 145 142 139 138 138 140 147 154 157 159 166 174 179 180 179 178 181 184 185 185 185 188 196 206 214 219 222 223 219 211 205 203 205 206 206 206 203 198 195 191 185 184 188 187 183 187 197 206 210 214 222 230 236 240 241 244 244 242 242 248 256 262 268 269 257 243 247 265 287 300 304 308 312 316 319 318 315
140 137 131 127 129 129 128 132 138 136 132 128 125 124 131 144 154 160 165 174 186 191 190 189 190 190 189 191 194 201 209 216 220 221 221 223 222 217 211 206 203 201 199 198 194 179 167 169 173 175 176 179 185 193 204 213 217 224 233 242 246 246 245 245 243 243 247 255 263 269 271 263 245 236 246 265 278 285 295 309 315 316 318 317 317
134 121 117 119 125 130 133 134 132 127 125 124 121 118 118 124 138 153 162 169 176 181 185 189 191 191 192 194 200 210 220 226 227 223 221 220 220 218 214 208 202 199 196 192 184 174 170 171 173 175 178 184 194 202 208 213 224 237 247 254 257 254 249 245 244 247 254 260 263 264 257 242 230 232 241 251 261 277 296 308 315 318 321 323 323
103 104 107 115 123 129 134 134 130 123 119 120 122 121 117 113 113 126 145 158 164 168 172 176 182 189 196 198 201 208 215 221 224 223 219 216 213 210 206 202 197 195 196 193 183 178 179 180 179 181 186 191 199 206 212 221 238 253 257 259 261 260 254 249 248 250 249 245 244 240 228 221 225 230 234 245 265 288 300 308 318 327 332 334 333
88 98 106 117 127 136 136 131 128 126 122 121 124 126 126 124 118 116 126 142 155 163 168 172 177 185 193 200 206 211 214 213 212 211 211 209 205 199 193 191 188 187 187 187 182 179 181 184 187 190 192 196 204 218 231 242 252 258 258 256 255 256 252 241 230 219 210 208 211 210 208 210 215 222 241 265 278 287 297 311 330 343 344 339 335
113 120 128 133 137 139 135 128 125 125 125 126 130 133 138 142 140 136 134 137 144 153 163 175 185 190 194 200 205 210 212 208 203 202 203 200 194 187 179 175 178 181 185 187 187 184 183 187 193 194 193 196 203 207 207 208 210 211 205 196 200 207 196 188 189 188 188 192 194 194 199 210 224 243 265 276 277 284 305 334 351 352 346 337 332
124 129 134 137 135 131 128 127 127 128 132 137 143 147 151 153 154 153 150 147 142 140 143 159 179 189 191 193 196 201 204 203 200 198 194 186 180 175 168 165 170 179 185 187 187 186 184 185 188 184 174 166 163 158 151 146 146 146 147 150 157 163 166 172 180 184 190 200 206 211 224 234 244 256 266 269 274 298 336 353 351 344 338 333 330
119 121 123 126 127 127 130 134 137 140 143 146 150 152 153 153 154 154 152 148 145 140 136 141 155 168 173 176 178 182 186 188 186 184 182 178 175 172 167 166 170 176 179 179 180 183 184 184 179 167 156 153 152 151 150 149 147 144 144 149 158 166 171 176 181 184 191 200 201 198 205 220 235 245 242 242 291 348 346 343 341 336 333 333 332
122 122 124 127 130 134 138 142 147 151 152 151 150 148 146 147 151 150 147 145 143 140 137 139 143 146 150 157 164 169 172 175 175 175 174 173 175 177 176 172 171 173 176 180 182 183 182 179 171 162 156 155 155 158 161 160 155 150 146 147 156 165 170 172 174 176 179 183 186 191 197 203 209 205 197 222 316 336 337 336 336 334 334 335 333
128 129 132 135 137 140 142 145 149 151 151 150 150 147 144 146 149 149 149 149 145 140 139 141 145 146 148 153 161 165 166 167 166 166 167 168 169 174 175 171 169 172 179 184 185 183 179 175 170 164 161 160 162 163 163 159 157 158 159 160 160 160 160 165 173 180 183 185 190 204 215 211 196 189 203 262 317 334 336 335 336 336 336 335 332
129 130 134 138 140 141 143 144 145 146 145 143 144 145 145 147 150 152 153 152 148 144 143 145 148 151 154 158 161 161 160 160 161 161 162 164 165 169 171 170 173 180 185 186 185 184 179 176 171 166 162 162 162 162 160 157 154 156 158 161 163 164 167 176 182 186 192 203 209 214 215 205 188 185 218 287 326 337 337 337 337 337 335 332 331
133 135 137 140 140 141 142 143 145 146 148 149 151 154 156 157 158 158 156 152 149 150 151 153 157 161 164 165 166 165 163 163 163 164 165 165 167 170 174 178 184 190 190 187 182 177 170 165 163 161 159 159 159 158 157 154 153 154 159 165 172 176 177 180 185 195 215 232 229 210 197 186 178 188 244 311 330 333 334 336 336 335 334 333 334
138 141 145 147 146 145 145 148 152 154 156 160 162 164 164 163 161 158 155 152 152 154 157 161 167 171 173 172 171 171 170 168 167 169 171 172 174 174 176 181 186 186 181 176 172 169 164 162 161 159 156 155 155 154 153 152 154 158 164 170 176 178 179 184 196 208 216 203 182 171 165 163 173 215 276 311 320 321 323 326 328 330 332 334 336
144 149 154 154 152 150 149 152 157 160 163 166 166 165 164 162 160 159 156 156 157 159 162 167 173 177 178 176 173 173 174 172 172 174 176 179 180 178 173 175 179 178 174 172 172 171 167 163 161 158 155 154 156 157 157 161 165 169 174 180 181 181 184 186 185 182 175 167 162 162 165 175 208 272 300 309 311 311 312 316 323 329 331 333 337
154 158 158 154 154 154 154 157 160 163 166 167 166 167 168 167 167 167 164 163 166 167 167 171 176 179 179 176 173 173 177 178 179 180 181 183 184 180 172 171 173 172 168 168 170 169 166 161 158 157 157 158 160 163 169 175 180 182 187 192 193 196 200 197 185 179 178 177 176 181 199 238 282 302 308 310 310 308 307 314 324 328 330 334 337
143 142 137 140 151 155 157 161 165 169 172 172 170 173 176 175 173 174 172 170 172 174 173 173 176 178 178 175 172 174 181 184 186 187 188 188 189 184 176 173 174 172 167 164 164 164 164 162 158 157 157 156 157 162 169 177 184 192 197 198 203 214 219 212 200 192 190 194 203 226 265 292 303 306 308 309 307 303 304 315 325 328 330 333 335
138 140 134 139 157 167 168 169 171 175 179 179 176 177 182 182 179 178 175 172 172 174 175 175 177 178 178 176 174 176 182 185 188 191 191 191 192 187 180 177 177 175 172 170 168 168 169 167 161 157 156 155 156 161 170 177 186 200 213 226 239 238 224 205 193 190 196 221 272 297 303 304 305 305 305 305 300 296 301 313 323 328 332 334 333
190 174 166 171 185 193 189 184 180 179 183 184 180 178 181 184 182 180 176 172 171 172 174 177 180 181 179 178 177 178 181 184 188 192 193 193 192 187 179 174 174 174 174 174 172 172 170 166 161 157 155 157 162 171 184 197 210 222 239 272 293 241 198 188 185 196 252 299 312 313 309 306 306 304 303 298 288 283 294 310 322 331 335 333 331
204 190 184 187 192 191 184 176 171 168 170 175 177 176 177 178 178 176 175 172 171 173 176 179 181 182 182 181 180 178 178 183 189 193 195 195 192 184 177 175 176 178 177 174 172 172 172 170 168 163 158 161 170 181 193 204 215 225 238 265 75 110 154 182 205 261 301 314 320 319 316 315 314 309 302 288 272 271 292 311 326 336 337 332 331
182 172 169 174 177 170 161 158 158 157 153 158 169 175 176 174 173 175 176 175 174 174 176 180 182 184 186 185 183 179 177 182 189 193 193 191 187 182 180 181 184 184 181 178 177 179 181 183 184 180 172 171 178 187 195 201 204 205 196 158 124 113 121 163 250 290 305 312 316 319 320 319 315 310 300 279 259 269 300 316 329 338 335 330 332
141 145 147 143 137 136 139 145 153 156 153 156 174 188 184 176 173 174 175 175 175 176 178 180 183 186 189 189 185 181 179 184 190 192 189 185 183 183 185 189 192 191 187 185 186 187 189 192 192 190 189 190 189 188 192 196 193 178 158 148 142 145 171 227 267 283 293 301 308 315 319 316 312 308 300 273 252 266 300 317 327 332 330 329 333
121 128 133 130 123 110 92 114 158 171 169 170 186 199 192 179 174 174 173 173 174 177 179 181 181 183 189 191 188 185 183 185 189 192 193 190 188 190 196 202 201 198 196 196 195 194 195 197 195 195 200 204 198 193 195 197 187 170 158 150 145 149 169 209 254 273 284 296 308 315 317 313 310 308 297 264 245 268 301 314 321 326 328 331 336
110 118 121 121 122 117 94 91 135 173 177 175 180 184 180 172 171 174 175 177 178 177 177 177 177 177 185 191 192 190 189 188 188 192 196 196 196 199 206 209 206 203 202 202 200 199 200 200 200 202 209 211 206 202 203 200 189 177 167 155 147 147 163 206 245 273 289 301 311 318 318 314 314 310 285 245 238 266 297 310 320 328 334 340 343
Height
737 741 744 748 751 754 758 762 765 768 770 773 774 776 778 779 780 782 784 786 788 789 791 793 794 796 798 800 801 803 804 805 807 808 810 810 811 812 813 814 815 816 818 819 820 821 823 823 825 826 827 828 829 830 831 832 833 833 833 834 834 835 836 836 837 836 836 836 837 836 837 837 836 836 836 836 836 836 836 836 835 835 834 834 833
732 736 740 744 747 750 755 758 762 765 767 769 771 772 774 775 777 779 780 782 784 786 787 789 792 793 795 796 798 800 801 802 804 805 806 807 808 810 811 812 813 814 815 816 817 819 820 821 823 824 825 826 827 828 829 830 831 831 832 832 833 833 834 835 835 836 835 835 835 835 835 836 835 835 835 834 834 834 834 834 834 833 833 832 831
728 732 736 740 743 747 751 754 758 761 763 765 767 768 770 772 774 775 777 779 781 782 784 786 788 790 792 794 795 797 798 799 800 802 803 804 806 807 809 809 810 811 812 813 815 817 818 819 820 822 824 824 825 826 827 828 829 830 830 831 831 832 832 833 834 834 834 833 834 834 834 834 834 834 834 834 834 834 833 833 832 832 831 830 830
724 728 732 735 739 743 746 749 753 756 759 761 762 764 766 768 770 771 773 776 777 779 782 784 785 787 789 790 792 794 795 796 797 799 801 802 803 805 806 807 807 808 809 811 813 815 816 817 819 821 822 823 823 824 825 827 827 828 829 829 830 830 831 831 832 832 832 832 832 832 833 833 833 833 833 833 833 833 832 832 831 831 830 829 828
720 723 727 731 735 738 741 744 747 750 753 756 758 760 763 764 766 768 770 772 774 776 779 781 782 784 785 787 789 790 792 793 794 796 798 799 801 802 803 804 805 806 808 810 812 814 815 816 818 820 821 821 822 822 823 825 826 826 827 827 828 829 829 830 830 831 831 831 831 831 831 831 831 831 831 831 831 831 830 830 829 829 828 827 827
716 719 723 726 729 732 735 738 741 745 748 751 754 756 759 760 762 764 766 768 771 773 775 777 778 780 782 784 786 787 789 790 791 793 795 796 798 800 801 802 803 806 808 810 811 813 814 815 817 819 819 820 820 821 822 823 824 825 825 825 826 827 828 828 829 829 829 829 829 829 830 830 829 829 830 830 829 828 828 828 827 827 826 825 825
711 715 718 721 724 727 729 732 735 739 743 746 749 752 755 757 758 760 762 765 767 769 771 773 775 777 779 781 783 785 786 787 788 790 792 794 795 797 799 801 803 807 811 812 811 812 813 814 816 817 818 818 819 820 820 821 822 823 823 824 825 825 826 827 827 827 827 827 828 828 828 828 828 828 828 828 827 826 826 825 824 824 824 824 823
706 710 713 716 718 720 724 727 730 734 738 742 745 748 751 753 754 756 759 762 764 766 768 770 772 775 777 778 780 782 783 783 785 787 789 791 793 795 797 800 804 810 813 812 812 811 811 812 813 814 815 816 817 818 818 819 820 821 821 822 823 823 824 825 825 826 826 826 826 825 825 826 825 825 826 825 825 824 824 823 822 821 821 821 820
702 705 709 710 712 715 719 723 726 730 734 737 741 744 746 749 751 753 756 758 761 763 765 768 770 772 774 775 777 779 779 779 780 783 786 789 791 793 795 798 802 805 807 808 809 809 809 809 810 810 812 813 815 816 817 818 818 818 819 820 821 821 822 823 823 823 824 824 823 823 823 823 823 823 823 823 822 821 821 821 820 819 819 818 816
697 701 702 703 707 712 716 719 722 726 729 732 736 739 742 745 748 750 753 755 758 760 763 765 767 768 770 772 774 774 774 775 777 780 783 786 788 790 792 795 797 799 800 802 804 805 805 805 806 807 809 811 813 814 815 816 816 817 817 818 819 820 820 821 821 821 822 822 821 821 821 820 820 820 820 820 820 819 819 819 818 817 817 815 813
693 695 696 699 704 708 711 715 718 722 725 728 731 734 738 742 745 748 750 752 755 757 759 761 762 764 766 768 769 769 769 771 773 777 780 783 785 786 789 791 793 794 796 797 799 800 800 801 803 805 807 808 810 812 813 814 814 815 815 816 817 818 818 818 819 819 820 819 819 819 819 818 817 818 818 818 818 817 817 817 816 816 815 814 812
688 690 692 696 701 704 707 710 714 717 720 724 727 730 735 739 741 744 746 749 751 753 755 757 758 760 762 764 765 764 765 767 770 773 777 780 783 784 785 787 789 790 792 793 795 796 797 798 800 802 804 806 808 809 811 812 812 813 813 814 814 815 816 816 817 817 817 817 817 816 816 816 815 815 816 816 815 815 815 815 815 814 814 813 811
682 685 688 693 696 699 703 706 709 712 715 719 723 728 732 735 737 740 742 744 747 749 751 753 754 756 758 759 759 760 761 764 766 769 773 777 779 780 782 783 784 786 788 789 791 792 794 795 797 800 802 804 805 807 808 809 810 810 810 811 812 812 813 814 815 815 815 815 814 813 814 814 813 813 813 814 813 813 813 813 812 812 811 811 809
677 680 683 688 691 694 698 701 704 707 711 715 720 724 728 730 733 736 738 741 743 745 747 748 750 752 753 753 755 756 757 759 761 764 769 773 775 777 778 780 781 782 784 785 787 788 790 792 794 797 799 801 803 804 805 806 807 807 808 808 809 810 811 812 812 813 813 813 812 811 811 812 811 811 811 812 811 811 811 811 810 810 809 808 807
671 675 679 682 686 690 693 695 699 702 707 712 716 719 722 725 728 731 734 736 738 740 742 744 745 746 747 749 750 752 753 755 757 760 765 769 772 773 775 776 778 779 780 782 783 785 787 790 792 794 796 798 800 801 802 803 804 805 805 805 806 807 808 809 810 810 811 810 810 810 810 810 810 809 809 809 809 809 809 809 809 808 807 806 805
667 671 674 677 681 684 687 690 694 698 703 707 710 714 716 719 723 727 729 732 734 736 738 739 740 741 743 745 747 749 750 752 755 758 762 766 768 770 772 774 775 776 777 779 781 783 786 787 789 791 793 795 797 798 800 801 801 802 802 803 804 805 806 807 808 808 808 808 808 808 808 808 808 808 808 808 808 808 808 808 807 806 805 804 803
662 665 668 671 675 678 682 686 689 693 698 701 704 706 710 713 718 722 725 727 729 731 732 734 735 737 740 742 744 746 749 750 753 756 759 763 765 767 769 770 771 773 774 776 778 781 783 785 786 788 790 792 794 796 797 798 799 799 800 801 802 803 803 805 806 806 806 806 806 806 806 806 806 806 806 806 806 807 806 806 805 804 803 803 801
657 660 663 666 670 674 677 681 684 688 692 694 697 700 704 708 712 716 719 721 723 725 727 729 732 734 737 739 741 744 746 747 749 752 756 759 761 762 764 766 768 770 772 774 776 778 780 781 783 784 786 788 791 793 794 796 796 797 798 799 800 800 801 802 803 803 804 804 804 804 804 805 805 805 805 805 805 805 804 804 803 802 801 801 800
652 654 656 660 664 669 672 676 679 682 685 688 691 695 699 702 706 710 714 716 718 721 724 727 729 731 733 736 738 741 742 742 744 748 751 754 756 757 761 764 766 768 770 772 774 775 776 778 780 782 784 786 789 790 791 793 794 795 797 797 797 798 798 800 801 801 802 802 802 803 803 803 803 803 803 803 803 803 802 802 801 800 800 799 799
646 648 651 655 660 663 666 669 672 676 679 683 687 691 695 698 702 705 709 712 715 718 721 723 725 727 730 732 734 736 736 737 740 744 747 750 752 754 757 759 762 764 766 769 771 772 773 775 777 779 781 784 786 787 788 790 792 793 794 794 794 795 796 798 799 799 800 800 801 801 801 801 801 801 801 801 801 801 800 800 800 799 799 798 798
643 646 650 653 656 658 661 663 666 669 674 678 683 688 691 695 698 701 704 708 711 715 717 720 722 724 726 728 729 731 733 735 739 742 745 747 750 752 754 755 758 761 763 766 767 768 769 771 774 776 778 781 783 784 786 788 789 790 791 791 791 793 794 796 797 797 798 799 799 799 798 798 799 799 799 800 800 799 799 799 799 798 798 797 796
641 645 647 650 652 654 656 659 662 666 670 675 680 684 688 691 694 697 701 704 708 711 714 716 719 721 723 725 728 730 733 736 738 741 743 746 748 750 751 752 755 758 761 763 764 764 766 768 771 773 776 778 780 782 784 785 787 788 789 789 790 792 794 795 795 796 797 797 797 797 796 796 797 797 798 798 798 798 798 798 798 797 796 795 794
639 641 644 646 648 650 653 655 659 663 666 671 675 680 685 689 692 695 698 701 704 708 711 714 717 720 723 726 728 731 734 735 737 740 742 745 747 748 749 751 754 757 759 759 760 762 764 767 769 771 774 776 779 781 782 784 787 788 788 788 790 792 794 794 794 795 796 796 796 795 794 795 795 795 796 796 796 797 797 796 796 795 794 793 792
641 641 642 644 646 648 650 653 656 659 663 668 673 677 682 687 690 693 695 698 702 705 709 713 716 719 723 726 728 731 734 735 737 739 742 744 745 746 748 750 753 755 756 757 759 761 763 765 768 771 773 775 777 779 781 783 786 787 786 788 790 791 791 791 792 794 795 795 794 793 793 793 793 794 794 795 795 795 795 795 794 793 792 791 790
638 640 641 642 644 646 649 651 654 656 660 665 669 675 680 684 688 692 694 696 700 705 709 713 716 719 722 725 728 731 733 735 737 739 741 742 743 745 747 749 751 753 755 757 759 761 763 766 768 771 773 775 776 777 779 781 783 783 784 786 787 788 789 789 789 791 793 793 792 792 792 792 792 793 793 794 794 794 793 793 792 791 790 789 788
633 637 640 642 643 644 647 651 654 655 659 664 667 671 676 681 686 690 693 696 700 704 707 711 715 718 721 724 727 729 732 734 736 737 738 740 741 743 746 748 750 752 754 757 759 761 764 766 768 770 773 774 775 775 776 778 780 782 783 784 785 786 786 787 787 789 790 790 790 790 790 791 791 792 792 792 793 792 792 791 789 788 788 786 785
626 629 634 641 646 647 647 650 653 656 658 662 667 670 674 679 684 688 692 696 699 702 706 710 713 717 720 723 725 727 729 732 734 735 736 738 740 742 744 746 749 751 753 756 758 761 763 765 767 770 772 773 775 775 775 777 779 780 781 782 783 784 785 785 786 787 787 788 788 788 789 790 790 790 791 791 791 790 790 789 787 786 785 784 783
625 625 627 635 645 652 652 651 652 655 658 660 664 669 673 677 682 686 690 694 697 701 705 707 711 714 717 720 723 725 727 729 730 732 734 736 738 740 742 745 747 750 752 755 757 760 761 763 766 768 770 771 773 774 775 776 777 778 779 780 781 782 783 784 784 785 785 786 786 787 787 788 789 789 789 789 789 789 788 787 786 785 784 783 781
625 626 627 631 640 649 654 655 652 653 656 659 662 667 672 676 681 685 690 693 696 699 702 705 708 711 714 717 720 722 724 725 727 730 733 734 736 738 740 743 745 748 751 753 756 758 760 762 763 764 766 768 769 771 773 774 775 776 777 778 779 780 781 782 783 783 784 784 785 785 786 787 787 788 788 787 787 787 786 785 785 784 783 782 780
620 624 627 631 635 640 649 658 658 653 653 657 661 667 673 678 682 686 690 695 698 700 702 704 707 709 712 715 717 719 720 722 725 728 731 733 736 738 740 742 744 746 749 752 754 757 758 760 761 762 763 766 767 769 771 772 772 773 775 776 777 778 779 780 781 781 782 783 783 784 784 785 785 785 785 785 785 785 784 784 783 782 781 780 779
612 617 627 633 636 639 645 655 661 658 654 656 661 668 675 681 685 689 693 696 699 701 703 705 708 710 712 713 715 717 719 721 724 727 729 732 735 737 739 741 743 745 748 750 753 755 756 758 759 760 761 763 764 766 768 769 770 772 773 774 775 776 777 778 779 780 781 781 782 782 782 783 784 784 784 784 783 783 783 782 781 780 780 779 777
612 615 628 636 643 648 650 654 658 659 658 659 663 669 676 683 689 693 695 697 699 702 704 706 708 710 711 712 713 715 717 719 722 724 727 729 732 735 737 739 741 744 746 749 751 753 754 756 758 759 760 761 762 765 767 768 769 770 771 772 773 774 775 776 777 778 780 780 780 781 781 782 783 783 783 783 782 781 781 780 779 779 778 777 776
627 627 636 642 649 656 657 656 657 658 658 661 666 672 678 685 691 695 697 698 700 702 704 706 709 710 711 712 712 714 715 717 719 722 724 727 730 732 736 738 740 743 745 747 749 751 753 755 757 759 759 760 761 764 765 766 768 769 769 770 771 771 773 774 776 777 778 779 780 780 781 781 782 781 782 781 781 780 779 778 778 777 776 775 775
639 640 644 649 654 657 657 657 657 659 661 665 670 676 683 688 691 694 696 698 699 700 702 705 708 711 711 711 712 713 714 716 717 720 722 725 728 731 735 738 741 744 745 746 747 749 751 754 757 758 759 760 761 763 764 765 766 767 768 769 770 770 772 773 775 777 778 778 779 779 780 780 780 780 780 780 779 779 778 777 776 775 774 774 773
648 649 651 653 655 656 657 658 659 662 665 669 673 679 684 689 692 694 695 695 696 697 699 703 707 710 711 711 711 713 714 715 717 719 721 724 728 731 734 737 741 743 745 746 747 748 750 753 756 758 759 759 761 762 764 765 766 767 768 769 770 771 772 773 775 776 777 777 778 778 779 779 779 779 778 778 778 777 776 775 775 774 773 773 772
654 655 655 655 656 657 659 661 663 666 670 673 676 680 684 688 692 694 695 695 696 696 698 702 706 709 710 710 712 714 715 716 718 719 722 725 728 730 733 736 739 741 744 746 748 749 751 754 756 757 758 759 760 762 763 765 766 766 767 768 769 771 772 773 774 775 776 776 777 777 777 777 777 777 777 777 776 776 775 774 774 773 772 772 770
657 658 658 657 659 660 663 665 667 670 673 675 678 681 684 688 692 694 696 698 698 697 698 701 705 707 709 711 713 714 715 717 719 721 723 726 729 731 733 735 737 740 743 746 748 750 752 754 755 756 757 758 760 762 763 764 765 766 766 768 769 770 772 773 774 774 775 775 775 775 776 776 776 776 776 776 775 775 774 773 772 772 771 770 769
659 660 659 660 661 663 666 668 670 673 675 676 678 680 683 687 691 695 698 700 699 698 699 702 704 706 708 711 713 714 715 718 720 722 724 727 729 732 734 736 738 741 743 745 748 749 751 753 754 755 756 757 759 761 762 763 764 765 766 767 768 770 771 772 773 773 773 774 774 774 774 774 774 774 775 774 774 773 772 772 771 771 770 769 768
661 662 662 663 664 667 669 670 673 675 677 678 680 682 684 687 691 696 699 700 699 699 700 703 705 707 709 711 713 714 716 718 720 722 724 727 730 733 735 737 739 742 743 745 747 749 750 751 753 754 755 757 758 760 761 762 763 764 765 767 768 769 770 771 771 772 772 772 773 772 773 773 773 773 773 773 772 772 771 771 770 770 769 768 766
663 664 665 666 668 670 671 673 675 677 678 681 683 686 688 691 693 695 697 697 697 698 700 702 705 707 709 710 712 713 715 717 719 722 724 727 730 733 735 737 739 741 743 745 747 748 749 750 752 753 755 756 758 759 760 761 762 764 765 766 767 768 769 769 770 770 770 771 771 771 771 772 772 772 772 771 771 770 770 769 769 769 768 766 765
665 666 668 669 670 672 673 676 678 679 681 684 687 689 691 692 693 693 694 695 697 699 701 703 705 706 708 710 712 714 715 717 720 722 725 727 730 733 735 737 739 741 743 744 746 747 748 750 751 753 754 756 757 758 759 761 762 763 764 766 767 767 768 768 768 769 769 769 769 770 770 771 771 771 770 769 769 769 769 768 768 767 766 765 764
668 669 670 670 672 673 675 678 680 682 685 688 690 690 691 692 692 693 694 696 698 700 702 704 706 707 709 711 713 715 717 719 721 723 725 728 730 732 735 737 739 741 742 743 745 746 748 749 751 753 754 755 757 758 759 760 761 762 764 765 766 766 766 767 767 767 768 768 769 769 769 769 769 769 768 768 768 768 767 767 767 766 765 763 762
671 673 673 673 673 674 676 679 682 684 686 688 689 690 691 691 693 694 695 697 700 701 703 705 707 708 709 712 714 716 718 720 722 724 726 728 730 732 735 737 739 741 742 743 744 746 747 749 751 752 753 755 756 757 758 759 761 762 763 764 764 765 765 765 766 766 767 767 768 768 768 768 768 767 767 767 767 766 766 766 765 764 763 762 761
674 675 676 675 675 676 678 680 682 684 685 686 688 690 692 693 694 695 696 699 701 702 704 705 706 708 710 712 715 717 719 721 723 724 726 728 730 732 735 737 739 740 742 743 744 746 747 748 750 752 753 754 755 756 758 759 760 761 762 763 763 764 764 764 765 765 765 766 766 766 766 766 766 766 766 765 765 765 765 764 764 763 762 761 759
676 676 676 677 678 679 680 680 682 684 685 685 687 689 692 694 695 696 697 699 701 703 704 705 706 708 710 712 715 717 719 721 723 724 726 728 730 732 735 737 739 740 741 743 744 745 746 748 749 751 752 753 755 756 757 758 759 760 761 761 762 762 762 763 763 764 764 765 765 765 765 765 764 764 764 763 763 763 763 763 762 761 760 760 758
679 678 677 677 678 679 680 680 682 684 685 686 687 689 691 694 695 696 697 698 699 701 703 705 707 708 710 712 715 717 719 721 722 724 725 727 729 732 734 736 738 739 741 742 743 744 745 747 748 749 751 752 754 755 757 758 759 759 760 760 760 761 761 762 762 763 763 764 764 763 763 763 762 762 762 761 761 762 762 761 761 760 759 759 757
678 678 678 678 678 679 679 680 682 683 685 686 688 689 691 694 695 696 697 698 698 700 703 705 707 709 711 713 715 717 718 720 721 723 725 727 729 732 734 736 737 738 739 740 742 743 744 745 747 748 749 751 752 754 756 757 758 758 759 759 759 760 760 761 761 762 762 762 762 762 762 761 760 760 760 760 760 760 760 760 760 759 758 757 756
677 677 678 679 680 680 680 680 681 683 685 687 689 690 691 693 694 695 696 697 699 700 702 705 708 709 711 713 715 716 718 720 721 723 725 727 729 731 733 735 736 737 738 739 740 741 742 744 745 746 748 749 751 753 755 756 756 757 757 758 758 759 759 760 760 761 761 761 761 761 760 759 759 758 758 758 758 758 758 758 758 757 757 756 755
677 677 678 679 682 684 683 682 683 684 685 686 690 692 692 692 693 694 695 697 699 700 703 705 708 709 711 713 714 716 718 720 721 723 725 727 729 731 733 734 735 736 736 737 738 739 741 742 743 745 746 748 750 751 753 754 755 755 756 756 757 757 758 759 759 759 760 760 759 759 758 757 757 757 756 756 756 757 757 757 757 756 755 755 754
678 679 679 680 683 685 685 684 685 685 684 685 689 692 692 691 692 693 695 696 698 701 703 705 707 709 710 711 713 716 718 719 721 723 725 727 729 730 732 732 733 734 735 735 736 738 739 740 741 743 745 746 748 750 751 752 753 754 754 755 755 756 757 757 758 758 758 758 758 757 756 756 755 755 754 754 755 755 755 755 755 755 754 753 752
680 681 682 683 683 684 684 685 686 687 687 687 688 690 691 691 691 693 694 696 699 701 703 705 707 708 709 711 713 715 717 719 721 723 725 727 728 729 730 731 731 732 733 734 735 736 737 738 740 741 743 745 746 748 749 750 751 752 752 753 753 754 755 756 756 757 757 757 756 755 755 754 753 753 753 753 754 754 754 754 754 753 753 752 751